Stations météo

réclame
Mon MeteoGroup
Moron de la Frontera, Espagne (8397): Température de l'air & dewpoint: 05.12.2017 03:00:00 - 11.12.2017 03:00:00 (CET)Moron de la Frontera, Espagne (8397): Vitesse du vent: 05.12.2017 03:00:00 - 11.12.2017 03:00:00 (CET)Moron de la Frontera, Espagne (8397): Direction du vent: 05.12.2017 03:00:00 - 11.12.2017 03:00:00 (CET)Moron de la Frontera, Espagne (8397): reduced air pressure: 05.12.2017 03:00:00 - 11.12.2017 03:00:00 (CET)Moron de la Frontera, Espagne (8397): visibility: 05.12.2017 03:00:00 - 11.12.2017 03:00:00 (CET)
Date & Time tt [°C] td [°C] ff [km/h] ff [knt] dd ppp [hPa] vv [km]
11.12.2017 03:00:00 - - - - - - -
11.12.2017 02:00:00 - - - - - - -
11.12.2017 01:00:00 15,4 13,2 26 14 WSW 1008,2 30
11.12.2017 00:00:00 - - - - - - -
10.12.2017 23:00:00 - - - - - - -
10.12.2017 22:00:00 15,0 13,7 22 12 SW 1012,1 30
10.12.2017 21:00:00 - - - - - - -
10.12.2017 20:00:00 - - - - - - -
10.12.2017 19:00:00 15,4 12,2 16 9 SW 1015,5 30
10.12.2017 18:00:00 - - - - - - -
10.12.2017 17:00:00 - - - - - - -
10.12.2017 16:00:00 17,5 11,1 18 10 WSW 1018,1 30
10.12.2017 15:00:00 - - - - - - -
10.12.2017 14:00:00 - - - - - - -
10.12.2017 13:00:00 15,3 11,7 11 6 WSW 1022,0 15
10.12.2017 12:00:00 - - - - - - -
10.12.2017 11:00:00 - - - - - - -
10.12.2017 10:00:00 11,9 11,4 9 5 WSW 1025,2 6
10.12.2017 09:00:00 - - - - - - -
10.12.2017 08:00:00 - - - - - - -
10.12.2017 07:00:00 10,7 10,2 5 3 S 1024,9 5
10.12.2017 06:00:00 - - - - - - -
10.12.2017 05:00:00 - - - - - - -
10.12.2017 04:00:00 9,6 9,0 5 3 SSW 1026,2 7
10.12.2017 03:00:00 - - - - - - -
10.12.2017 02:00:00 - - - - - - -
10.12.2017 01:00:00 12,2 11,3 9 5 SW 1027,4 15
10.12.2017 00:00:00 - - - - - - -
09.12.2017 23:00:00 - - - - - - -
09.12.2017 22:00:00 12,8 11,4 11 6 SSW 1027,3 15
09.12.2017 21:00:00 - - - - - - -
09.12.2017 20:00:00 - - - - - - -
09.12.2017 19:00:00 13,6 11,8 8 4 SSW 1026,5 15
09.12.2017 18:00:00 - - - - - - -
09.12.2017 17:00:00 - - - - - - -
09.12.2017 16:00:00 15,3 12,4 8 4 SW 1026,6 15
09.12.2017 15:00:00 - - - - - - -
09.12.2017 14:00:00 - - - - - - -
09.12.2017 13:00:00 13,9 11,2 5 3 SW 1028,1 15
09.12.2017 12:00:00 - - - - - - -
09.12.2017 11:00:00 - - - - - - -
09.12.2017 10:00:00 8,6 6,9 5 3 SSW 1028,7 15
09.12.2017 09:00:00 - - - - - - -
09.12.2017 08:00:00 - - - - - - -
09.12.2017 07:00:00 6,1 4,3 8 4 S 1027,5 9
09.12.2017 06:00:00 - - - - - - -
09.12.2017 05:00:00 - - - - - - -
09.12.2017 04:00:00 6,8 3,8 8 4 S 1028,1 12
09.12.2017 03:00:00 - - - - - - -
09.12.2017 02:00:00 - - - - - - -
09.12.2017 01:00:00 7,6 4,7 8 4 S 1028,5 12
09.12.2017 00:00:00 - - - - - - -
08.12.2017 23:00:00 - - - - - - -
08.12.2017 22:00:00 9,4 6,1 4 2 S 1029,0 9
08.12.2017 21:00:00 - - - - - - -
08.12.2017 20:00:00 - - - - - - -
08.12.2017 19:00:00 12,7 4,2 5 3 W 1028,7 15
08.12.2017 18:00:00 - - - - - - -
08.12.2017 17:00:00 - - - - - - -
08.12.2017 16:00:00 16,8 2,4 2 1 NW 1028,5 20
08.12.2017 15:00:00 - - - - - - -
08.12.2017 14:00:00 - - - - - - -
08.12.2017 13:00:00 13,6 5,0 5 3 NNE 1030,1 12
08.12.2017 12:00:00 - - - - - - -
08.12.2017 11:00:00 - - - - - - -
08.12.2017 10:00:00 5,7 4,5 8 4 NNE 1031,0 5
08.12.2017 09:00:00 - - - - - - -
08.12.2017 08:00:00 - - - - - - -
08.12.2017 07:00:00 3,4 2,7 5 3 NE 1030,3 4,0
08.12.2017 06:00:00 - - - - - - -
08.12.2017 05:00:00 - - - - - - -
08.12.2017 04:00:00 3,9 3,2 4 2 SSE 1030,2 15
08.12.2017 03:00:00 - - - - - - -
08.12.2017 02:00:00 - - - - - - -
08.12.2017 01:00:00 5,0 3,5 4 2 N 1031,2 8
08.12.2017 00:00:00 - - - - - - -
07.12.2017 23:00:00 - - - - - - -
07.12.2017 22:00:00 6,1 3,6 5 3 SE 1031,1 25
07.12.2017 21:00:00 - - - - - - -
07.12.2017 20:00:00 - - - - - - -
07.12.2017 19:00:00 10,6 4,3 0 0 N 1030,3 25
07.12.2017 18:00:00 - - - - - - -
07.12.2017 17:00:00 - - - - - - -
07.12.2017 16:00:00 15,1 3,9 4 2 NNW 1029,7 25
07.12.2017 15:00:00 - - - - - - -
07.12.2017 14:00:00 - - - - - - -
07.12.2017 13:00:00 13,0 6,4 4 2 ENE 1031,5 14
07.12.2017 12:00:00 - - - - - - -
07.12.2017 11:00:00 - - - - - - -
07.12.2017 10:00:00 4,3 3,6 4 2 NE 1032,6 5
07.12.2017 09:00:00 - - - - - - -
07.12.2017 08:00:00 - - - - - - -
07.12.2017 07:00:00 1,7 1,0 4 2 SE 1030,9 9
07.12.2017 06:00:00 - - - - - - -
07.12.2017 05:00:00 - - - - - - -
07.12.2017 04:00:00 3,3 2,4 4 2 NE 1031,3 15
07.12.2017 03:00:00 - - - - - - -
07.12.2017 02:00:00 - - - - - - -
07.12.2017 01:00:00 5,0 3,7 4 2 NE 1032,1 15
07.12.2017 00:00:00 - - - - - - -
06.12.2017 23:00:00 - - - - - - -
06.12.2017 22:00:00 5,8 4,0 4 2 S 1031,7 25
06.12.2017 21:00:00 - - - - - - -
06.12.2017 20:00:00 - - - - - - -
06.12.2017 19:00:00 12,1 3,9 5 3 N 1030,7 30
06.12.2017 18:00:00 - - - - - - -
06.12.2017 17:00:00 - - - - - - -
06.12.2017 16:00:00 16,2 2,2 0 0 N 1030,4 25
06.12.2017 15:00:00 - - - - - - -
06.12.2017 14:00:00 - - - - - - -
06.12.2017 13:00:00 13,2 5,6 4 2 NW 1032,3 15
06.12.2017 12:00:00 - - - - - - -
06.12.2017 11:00:00 - - - - - - -
06.12.2017 10:00:00 4,5 3,9 0 0 N 1033,6 6
06.12.2017 09:00:00 - - - - - - -
06.12.2017 08:00:00 - - - - - - -
06.12.2017 07:00:00 0,6 -0,1 0 0 N 1032,9 3,0
06.12.2017 06:00:00 - - - - - - -
06.12.2017 05:00:00 - - - - - - -
06.12.2017 04:00:00 3,0 1,8 2 1 ESE 1033,0 15
06.12.2017 03:00:00 - - - - - - -
06.12.2017 02:00:00 - - - - - - -
06.12.2017 01:00:00 4,8 3,3 0 0 N 1033,8 15
06.12.2017 00:00:00 - - - - - - -
05.12.2017 23:00:00 - - - - - - -
05.12.2017 22:00:00 7,5 5,0 5 3 SE 1033,4 15
05.12.2017 21:00:00 - - - - - - -
05.12.2017 20:00:00 - - - - - - -
05.12.2017 19:00:00 11,5 4,3 0 0 N 1032,5 20
05.12.2017 18:00:00 - - - - - - -
05.12.2017 17:00:00 - - - - - - -
05.12.2017 16:00:00 16,6 4,9 2 1 NNW 1031,9 30
05.12.2017 15:00:00 - - - - - - -
05.12.2017 14:00:00 - - - - - - -
05.12.2017 13:00:00 13,9 4,2 4 2 N 1033,5 25
05.12.2017 12:00:00 - - - - - - -
05.12.2017 11:00:00 - - - - - - -
05.12.2017 10:00:00 6,0 4,8 0 0 N 1034,2 6
05.12.2017 09:00:00 - - - - - - -
05.12.2017 08:00:00 - - - - - - -
05.12.2017 07:00:00 1,0 0,3 4 2 SSE 1033,0 12
05.12.2017 06:00:00 - - - - - - -
05.12.2017 05:00:00 - - - - - - -
05.12.2017 04:00:00 2,4 1,4 4 2 SE 1032,7 20
05.12.2017 03:00:00 - - - - - - -

tt = Température de l'air
td = dewpoint
ff = Vitesse du vent
dd = Direction du vent
ppp = reduced air pressure
vv = visibility

stations d'obs. à proximité